EW7868 Weather Reports


time (UTC)temp
F
wind
direction
speed
knots
gust
knots
rain 1hr
in
rain 24hr
in
rain mn
in
humidity
%
barometer
mb
20260504035102 57 199 1.7 3.5 0.00 0.02 0.02 72 1004.8
20260504034600 57 192 3.5 3.5 0.00 0.02 0.02 71 1005.1
20260504034057 57 191 0.0 4.3 0.00 0.02 0.02 71 1005.0
20260504033555 57 203 1.7 3.5 0.00 0.02 0.02 71 1004.9
20260504033052 57 209 2.6 3.5 0.00 0.02 0.02 71 1005.0
20260504032549 57 199 1.7 3.5 0.00 0.02 0.02 71 1005.0
20260504032046 57 194 1.7 2.6 0.00 0.02 0.02 71 1005.2
20260504031543 57 195 1.7 2.6 0.00 0.02 0.02 71 1005.2
20260504031039 57 208 1.7 2.6 0.00 0.02 0.02 72 1005.1
20260504030536 57 200 0.0 1.7 0.00 0.02 0.02 71 1005.1
20260504030032 57 180 1.7 2.6 0.00 0.02 0.02 71 1005.2
20260504025530 57 191 0.9 1.7 0.00 0.02 0.02 71 1005.3
20260504025026 57 196 0.0 1.7 0.00 0.02 0.02 70 1005.2
20260504024523 57 209 0.0 1.7 0.00 0.02 0.02 70 1005.1
20260504024020 58 188 0.0 1.7 0.00 0.02 0.02 69 1005.0
20260504023517 58 199 0.0 1.7 0.00 0.02 0.02 68 1005.1
20260504023013 58 192 1.7 3.5 0.00 0.02 0.02 67 1005.2
20260504022508 59 180 0.9 2.6 0.00 0.02 0.02 67 1005.1
20260504022005 59 204 1.7 2.6 0.00 0.02 0.02 66 1005.1
20260504021503 59 202 2.6 3.5 0.00 0.02 0.02 66 1005.1
20260504021000 59 193 2.6 3.5 0.00 0.02 0.02 66 1005.0
20260504020456 60 199 2.6 3.5 0.00 0.02 0.02 65 1005.0
20260504015953 60 187 0.0 2.6 0.00 0.02 0.02 64 1004.7
20260504015449 60 180 3.5 5.2 0.00 0.02 0.02 63 1005.0
20260504014945 60 211 2.6 4.3 0.00 0.02 0.02 64 1004.6
20260504014441 61 188 1.7 6.1 0.00 0.02 0.02 63 1004.7
20260504013938 61 197 2.6 3.5 0.00 0.02 0.02 63 1004.8
20260504013437 61 199 0.0 3.5 0.00 0.02 0.02 62 1004.6
20260504012932 62 201 1.7 3.5 0.00 0.02 0.02 61 1004.8
20260504012431 62 205 2.6 6.1 0.00 0.02 0.02 60 1004.9
20260504011928 62 192 0.9 5.2 0.00 0.02 0.02 60 1004.8
20260504011425 63 201 0.0 4.3 0.00 0.02 0.02 59 1004.7
20260504010920 63 195 0.0 4.3 0.00 0.02 0.02 59 1004.7
20260504010417 63 197 3.5 5.2 0.00 0.02 0.02 58 1004.6
20260504005913 64 195 1.7 7.0 0.00 0.02 0.02 57 1004.8
20260504005410 64 202 3.5 7.0 0.00 0.02 0.02 57 1004.6
20260504004908 64 200 4.3 6.1 0.00 0.02 0.02 56 1004.4
20260504004405 65 197 3.5 6.1 0.00 0.02 0.02 55 1004.6
20260504003902 65 212 1.7 9.6 0.00 0.02 0.02 56 1004.6
20260504003358 65 195 2.6 6.1 0.00 0.02 0.02 56 1004.8
20260504002855 66 201 7.0 7.0 0.00 0.02 0.02 55 1004.5
20260504002352 66 234 2.6 7.0 0.00 0.02 0.02 54 1004.8
20260504001849 67 109 0.9 6.1 0.00 0.02 0.02 54 1004.7
20260504001346 67 194 2.6 3.5 0.00 0.02 0.02 53 1004.7
20260504000843 68 199 3.5 9.6 0.00 0.02 0.02 53 1004.6
20260504000340 68 183 2.6 8.7 0.00 0.02 0.02 51 1004.7
20260503235838 68 190 5.2 8.7 0.00 0.02 0.02 51 1004.6
20260503235335 68 193 5.2 9.6 0.00 0.02 0.02 50 1004.8
20260503234832 69 255 1.7 7.0 0.00 0.02 0.02 50 1004.7
20260503234330 69 166 3.5 12.2 0.00 0.02 0.02 49 1005.1
20260503233828 69 267 7.0 9.6 0.00 0.02 0.02 49 1005.0
20260503233323 69 189 3.5 13.0 0.00 0.02 0.02 48 1004.6
20260503232820 70 185 1.7 7.0 0.00 0.02 0.02 48 1004.6
20260503232318 70 183 2.6 11.3 0.00 0.02 0.02 47 1005.0
20260503231815 70 197 6.1 8.7 0.00 0.02 0.02 47 1004.9
20260503231312 70 194 2.6 8.7 0.00 0.02 0.02 47 1004.8
20260503230808 70 267 0.0 11.3 0.00 0.02 0.02 46 1004.8
20260503230305 70 205 2.6 7.8 0.00 0.02 0.02 46 1005.0
20260503225803 70 198 6.1 10.4 0.00 0.02 0.02 46 1005.0
20260503225258 70 192 6.1 6.1 0.00 0.02 0.02 46 1004.9
20260503224755 70 197 5.2 6.1 0.00 0.02 0.02 46 1004.9
20260503224253 70 199 7.8 9.6 0.00 0.02 0.02 47 1005.0
20260503223750 70 203 0.0 7.8 0.00 0.02 0.02 47 1005.1
20260503223248 71 202 5.2 9.6 0.00 0.02 0.02 45 1005.1
20260503222743 71 208 5.2 12.2 0.00 0.02 0.02 45 1005.1
20260503222242 70 201 6.1 9.6 0.00 0.02 0.02 45 1005.2
20260503221740 71 180 2.6 10.4 0.00 0.02 0.02 45 1005.2
20260503221237 71 219 2.6 12.2 0.00 0.02 0.02 46 1005.3
20260503220733 71 49 1.7 12.2 0.00 0.02 0.02 45 1005.2
20260503220231 71 213 0.0 13.9 0.00 0.02 0.02 45 1005.2
20260503215727 71 197 2.6 11.3 0.00 0.02 0.02 43 1005.4
20260503215224 70 90 0.0 7.0 0.00 0.02 0.02 44 1005.3
20260503214722 68 193 7.8 7.8 0.00 0.02 0.02 47 1005.5
20260503214219 69 202 4.3 8.7 0.00 0.02 0.02 45 1005.7
20260503213717 69 206 6.1 11.3 0.00 0.02 0.02 45 1005.4
20260503213214 68 241 1.7 6.1 0.00 0.02 0.02 47 1005.6
20260503212711 67 190 2.6 13.9 0.00 0.02 0.02 47 1005.7
20260503212209 68 209 6.1 13.9 0.00 0.02 0.02 47 1005.5
20260503211706 69 192 1.7 13.9 0.00 0.02 0.02 45 1005.5
20260503211202 68 190 6.1 13.0 0.00 0.02 0.02 46 1005.7
20260503210658 67 208 6.1 11.3 0.00 0.02 0.02 48 1005.9
20260503210155 67 205 5.2 12.2 0.00 0.02 0.02 46 1005.9
20260503205650 69 198 2.6 12.2 0.00 0.02 0.02 45 1006.0
20260503205146 69 185 5.2 18.2 0.00 0.02 0.02 46 1006.0
20260503204643 68 194 8.7 16.5 0.00 0.02 0.02 45 1006.2
20260503204141 67 198 7.0 13.0 0.00 0.02 0.02 47 1006.2
20260503203638 66 190 4.3 13.9 0.00 0.02 0.02 48 1006.6
20260503203136 66 189 1.7 10.4 0.00 0.02 0.02 48 1006.6
20260503202633 65 207 6.1 13.9 0.00 0.02 0.02 47 1006.6
20260503202131 66 200 8.7 19.1 0.00 0.02 0.02 46 1006.6
20260503201628 67 199 4.3 17.4 0.00 0.02 0.02 47 1007.3
20260503201126 66 200 9.6 19.1 0.00 0.02 0.02 45 1007.0
20260503200621 66 210 6.1 13.0 0.00 0.02 0.02 44 1007.2
20260503200118 68 198 7.8 13.0 0.00 0.02 0.02 44 1007.1
20260503195615 67 201 13.9 13.9 0.00 0.02 0.02 44 1007.1
20260503195112 66 218 6.1 14.8 0.00 0.02 0.02 46 1007.3
20260503194609 65 196 6.1 16.5 0.00 0.02 0.02 46 1007.2
20260503194104 65 197 11.3 20.0 0.00 0.02 0.02 45 1007.3
20260503193601 64 207 2.6 14.8 0.00 0.02 0.02 46 1007.5
20260503193056 65 196 7.0 22.6 0.00 0.02 0.02 45 1007.3
20260503192553 66 238 2.6 18.2 0.00 0.02 0.02 46 1007.6
20260503192048 66 197 12.2 18.2 0.00 0.02 0.02 47 1007.5
20260503191545 66 197 12.2 14.8 0.00 0.02 0.02 47 1007.6
20260503191042 65 192 4.3 20.9 0.00 0.02 0.02 47 1007.4
20260503190539 65 201 11.3 14.8 0.00 0.02 0.02 49 1007.5
20260503190037 65 197 7.8 17.4 0.00 0.02 0.02 48 1007.7
20260503185533 65 197 11.3 16.5 0.00 0.02 0.02 49 1007.8
20260503185032 65 202 9.6 18.2 0.00 0.02 0.02 52 1007.7
20260503184529 63 229 4.3 15.6 0.00 0.02 0.02 53 1008.0
20260503184026 63 188 3.5 13.9 0.00 0.02 0.02 54 1008.3
20260503183522 63 217 13.0 19.1 0.00 0.02 0.02 54 1008.3
20260503183019 64 184 3.5 11.3 0.00 0.02 0.02 60 1008.5
20260503182518 62 226 4.3 10.4 0.00 0.02 0.02 60 1008.6
20260503182015 62 194 7.8 13.0 0.00 0.02 0.02 60 1008.6
20260503181512 61 218 4.3 12.2 0.00 0.02 0.02 62 1008.9
20260503181008 61 193 4.3 8.7 0.00 0.02 0.02 64 1009.0
20260503180506 60 180 0.0 9.6 0.00 0.02 0.02 63 1009.5
20260503180003 59 341 2.6 13.9 0.00 0.02 0.02 65 1009.4
20260503175501 59 139 1.7 10.4 0.00 0.02 0.02 65 1009.6
20260503174956 57 191 4.3 13.9 0.00 0.02 0.02 66 1009.7
20260503174455 55 117 0.0 8.7 0.00 0.02 0.02 70 1010.1
20260503173950 55 200 6.1 10.4 0.00 0.02 0.02 69 1010.3
20260503173446 55 191 4.3 11.3 0.00 0.02 0.02 71 1010.7
20260503172943 55 200 7.0 7.8 0.00 0.02 0.02 72 1010.7
20260503172440 55 29 1.7 11.3 0.00 0.02 0.02 72 1010.8
20260503171937 54 185 2.6 6.1 0.00 0.02 0.02 72 1011.2
20260503171433 54 196 6.1 6.1 0.00 0.02 0.02 73 1011.0
20260503170931 53 106 2.6 7.0 0.00 0.02 0.02 72 1011.3
20260503170427 53 180 2.6 4.3 0.00 0.02 0.02 76 1011.3
20260503150819 50 196 4.3 4.3 0.05 0.01 0.01 78 1013.3
20260503150315 51 186 0.0 7.0 0.02 0.00 0.00 75 1013.5
20260503140240 53 199 9.6 14.8 0.00 0.00 0.00 63 1013.0
20260503131209 51 198 8.7 8.7 0.00 0.00 0.00 66 1013.5
20260503130707 51 191 0.9 7.8 0.00 0.00 0.00 66 1013.3
20260503130204 51 194 3.5 7.0 0.00 0.00 0.00 67 1013.3
20260503120130 46 184 4.3 8.7 0.00 0.00 0.00 71 1013.1
20260503110557 45 201 2.6 6.1 0.00 0.00 0.00 71 1013.4
20260503090444 43 194 0.9 4.3 0.00 0.00 0.00 71 1013.7
20260503081410 42 186 0.9 3.5 0.00 0.00 0.00 72 1014.0
20260503080908 43 183 1.7 4.3 0.00 0.00 0.00 73 1013.7
20260503080404 43 183 1.7 2.6 0.00 0.00 0.00 72 1013.9
20260503072840 43 180 0.9 3.5 0.00 0.00 0.00 71 1013.8
20260503072337 43 171 1.7 5.2 0.00 0.00 0.00 70 1013.9
20260503071834 43 183 2.6 2.6 0.00 0.00 0.00 71 1013.6
20260503071331 44 197 1.7 2.6 0.00 0.00 0.00 70 1014.0
20260503070827 44 180 1.7 2.6 0.00 0.00 0.00 70 1013.9
20260503070326 43 184 1.7 1.7 0.00 0.00 0.00 69 1014.0
20260503060250 44 194 0.9 4.3 0.00 0.00 0.00 67 1014.6
20260503054737 44 171 1.7 2.6 0.00 0.00 0.00 66 1014.4
20260503054234 44 180 1.7 3.5 0.00 0.00 0.00 67 1014.6
20260503053732 44 187 2.6 3.5 0.00 0.00 0.00 67 1014.7
20260503053231 44 183 2.6 2.6 0.00 0.00 0.00 67 1014.6
20260503052726 44 180 0.0 2.6 0.00 0.00 0.00 67 1014.7
20260503052223 44 188 0.0 3.5 0.00 0.00 0.00 66 1014.8
20260503051718 44 183 1.7 2.6 0.00 0.00 0.00 65 1014.8
20260503051217 44 214 0.0 1.7 0.00 0.00 0.00 66 1014.8
20260503050713 44 172 1.7 2.6 0.00 0.00 0.00 65 1014.7
20260503050209 44 190 1.7 2.6 0.00 0.00 0.00 65 1015.0
20260503045707 44 180 0.0 2.6 0.00 0.00 0.00 65 1014.8
20260503045204 45 185 0.9 1.7 0.00 0.00 0.00 64 1014.8
20260503044700 45 180 0.0 2.6 0.00 0.00 0.00 62 1014.8
20260503044158 45 206 1.7 3.5 0.00 0.00 0.00 61 1014.8
20260503043655 45 197 2.6 3.5 0.00 0.00 0.00 61 1014.9
20260503043152 45 180 1.7 3.5 0.00 0.00 0.00 61 1014.9
20260503042648 45 192 0.9 2.6 0.00 0.00 0.00 61 1014.8
20260503042145 46 191 0.0 2.6 0.00 0.00 0.00 61 1015.1
20260503041641 46 203 1.7 2.6 0.00 0.00 0.00 60 1015.0
20260503041139 46 198 2.6 3.5 0.00 0.00 0.00 60 1015.0
20260503040636 46 199 1.7 3.5 0.00 0.00 0.00 59 1015.0
20260503040134 46 197 1.7 4.3 0.00 0.00 0.00 59 1015.1
20260503035630 46 206 2.6 2.6 0.00 0.00 0.00 60 1015.1